Вернуться в каталог

DELTA 1 DEB

LostUNKNOWN
NORAD 26672·DEBRIS·🇺🇸 United States

Запущен Jul 4, 1968 с Vandenberg Space Force Base

Loading…

Ближайшие Пролёты (ближайшие 24 часа)

TLE

УстаревшееSource: Space-Track

Эпоха: Sep 12, 2025, 19:57 UTC

1 26672U 68055F   25255.83152456  .00003206  00000-0  29823-2 0  9997
2 26672 120.4741 285.5786 1602629 171.8209 191.2471 11.42113385517400

Отслеживайте DELTA 1 DEB в реальном времени с AllMySat

Download on the App Store